CAPE
1317 1110 995 1261 1371 1038 203 0 15 5 38 73 259 247 167 31 0 25 636 870 1294 1123 1801 2713 3105 2885 2392 2757 2871 2183 1933 1812 1991 1944 1928 1997 2095 1903 1777 1585 1616 1288 1093 883 982 1218 1166 1491 1379
951 1091 905 1500 1489 674 11 0 9 68 269 347 372 362 418 669 898 628 879 1320 1493 1752 2073 2209 3167 3139 2966 3010 2788 2376 1997 1816 1944 1690 1913 1835 1961 1848 1826 1624 1557 1715 1460 1213 1391 1414 1439 1419 1417
1224 1028 1290 1762 692 736 35 4 11 54 57 179 387 464 603 986 762 668 1029 1346 1596 1858 1933 2087 3168 2940 2556 2930 2994 2431 2472 1831 1745 1752 2203 1758 1331 1703 1759 1671 1693 1583 1621 1644 1646 1506 1578 1484 1048
1450 1713 1113 186 262 346 80 51 119 127 123 374 469 561 649 924 882 911 1084 1190 1341 1557 1876 2690 3417 2650 2449 2676 2845 2671 2462 2118 1890 2015 2102 1596 1489 1794 1638 1706 1729 1619 1523 1541 1615 1635 1437 1550 1166
1067 139 11 138 17 16 55 19 58 305 283 473 731 703 653 851 831 897 998 957 873 1329 1639 2588 3310 3231 3052 2852 2741 2757 2548 2071 2169 2137 2046 1865 1773 1972 1523 1777 1432 1785 1642 1605 1574 1306 1347 1196 794
284 20 3 93 22 24 1 8 14 206 461 830 671 656 615 753 727 841 957 734 832 1237 1849 2273 2897 3204 2866 2462 2466 2394 2307 2295 1783 1630 1674 1851 1734 1756 1605 1683 1150 1390 1385 1390 1283 665 1184 1285 644
413 34 117 55 52 23 23 2 18 243 476 813 767 642 783 779 757 958 886 656 974 1310 1721 1961 2098 1987 2124 2294 2047 1918 1711 1661 2355 1933 1831 1726 1596 1667 1612 1908 1438 826 1384 1090 892 1544 1488 1436 1014
670 186 110 72 13 13 0 10 15 118 462 685 668 589 627 927 876 915 701 677 1118 1234 1363 1743 1985 2008 2172 2001 2480 2407 2449 2254 2352 2121 2039 2047 1966 1746 1572 1886 2028 441 1209 1482 1219 1619 1508 1299 869
1280 316 51 177 93 2 1 11 41 136 408 513 660 566 462 750 920 844 806 1112 1141 1005 1172 1498 1605 1967 1968 1753 1725 2375 1730 1906 2160 2262 1868 1670 1403 1475 1629 1731 1715 752 1622 1332 1412 1113 1035 832 699
1208 748 241 268 87 60 33 29 130 126 5 563 744 527 556 926 1080 1018 997 1020 941 844 1226 1405 1357 1527 1648 1762 1891 1824 1377 1357 1409 1646 1289 1766 1104 1465 1648 1562 1885 990 1571 1540 1231 1893 1013 1116 1081
484 700 639 443 258 74 83 116 129 161 142 443 743 597 675 836 1355 1164 986 858 842 886 1075 1204 1261 1274 1355 1381 1593 1862 1808 1373 1589 1686 1348 1672 1042 1527 1569 1469 1359 1158 815 1166 1732 1542 1462 891 965
6 0 16 84 201 146 171 123 262 113 186 547 776 691 729 758 970 1446 1240 937 1026 1112 967 1088 1175 1151 1095 1079 1270 1368 1705 1773 1289 1489 1539 1394 1190 959 1474 1361 1391 1417 930 565 1319 1432 1263 1150 955
0 0 0 0 27 182 239 241 251 4 0 659 893 762 749 758 732 968 1514 1321 1437 1310 1099 968 1010 1025 1054 1095 942 1069 1304 1240 1220 1229 1336 1184 1080 850 839 1025 1319 1357 1256 367 970 1127 1185 962 709
0 0 0 0 0 0 14 29 0 0 74 495 965 869 824 678 744 759 1016 1573 1527 1348 1149 1042 994 988 1008 1135 971 696 899 1105 1062 1062 1136 1179 933 773 711 855 950 1131 1088 871 152 695 836 713 329
0 0 0 0 0 0 0 0 0 0 6 99 842 999 931 649 786 818 716 901 1474 1369 1178 1145 1205 1136 1031 1240 1044 774 722 966 1064 1109 1025 928 1053 761 404 669 764 848 761 889 594 147 155 286 133
0 0 0 0 0 0 0 0 0 0 0 18 169 744 1062 1021 986 925 876 851 908 1250 1256 1258 1507 1280 1142 1319 1178 1018 834 931 1139 1097 1001 752 861 826 726 647 831 759 876 774 625 481 275 239 408
0 0 0 0 0 0 0 0 0 0 0 0 308 343 994 1170 1201 1127 1053 1082 990 835 1306 1380 1527 1338 1212 1285 1292 1125 962 1001 999 892 1065 960 908 804 1137 985 770 757 828 773 612 439 363 221 297
0 0 0 0 0 0 0 0 0 0 0 152 431 539 1017 1087 1189 1310 1292 1289 1237 1025 1453 1565 1586 1442 1288 987 1686 1319 1157 1037 1067 997 612 1006 830 743 1163 1038 736 719 688 654 361 289 271 265 196
0 0 0 0 0 0 0 0 0 0 0 0 770 914 1040 1111 1137 1218 1415 1425 1395 1249 1370 1737 1690 1521 1232 1302 1425 1701 1327 1333 1147 993 707 470 267 363 1063 916 773 733 576 466 278 248 275 372 342
0 0 0 0 0 0 0 0 0 0 0 0 0 0 624 1231 1253 1327 1170 1450 1473 1370 1277 1763 1711 1501 1408 1363 1293 1340 1267 1187 1151 905 972 881 666 465 914 1012 887 723 541 373 186 216 250 242 266
0 0 0 0 0 0 0 0 0 0 0 0 0 0 0 71 219 1040 1130 1474 1566 1441 1350 1389 1654 1587 1493 1246 1342 1332 1177 1248 997 1016 1021 933 775 894 1020 910 818 783 686 563 200 141 247 247 221
0 0 0 0 0 0 0 0 0 0 0 0 0 0 7 84 212 347 1384 1441 1698 1507 1326 1268 1396 1569 1481 1482 1379 1303 1114 945 997 786 645 1093 982 1014 1110 1052 933 831 772 751 629 102 364 391 274
0 0 0 0 0 0 0 0 0 0 0 0 0 10 60 42 280 1141 1437 1411 1333 1600 1393 1289 1370 1539 1467 1467 1387 1378 1238 897 761 882 757 902 1224 1057 1069 1034 1016 962 805 694 591 309 457 465 391
0 0 0 0 0 0 0 0 0 21 0 0 0 45 87 117 210 266 491 1127 1138 1314 1460 1372 1411 1782 1715 1617 1561 1391 1394 1260 962 979 923 930 1217 1332 1160 949 821 912 878 927 749 481 400 532 479
0 0 0 0 0 0 0 0 25 82 186 146 153 174 153 104 177 478 736 1403 1448 1169 1499 1632 1666 1814 1979 1783 1752 1530 1348 1313 1388 1064 1054 883 1266 1387 1417 1300 988 969 746 701 554 472 174 319 465
0 0 0 0 0 0 0 0 2 193 248 127 171 108 105 93 107 461 550 886 1734 1510 1762 1957 1862 1797 2147 1993 1862 1725 1508 1277 1313 1333 1062 962 1005 1341 1475 1457 1370 1236 706 458 285 217 125 354 553
0 0 0 0 0 0 0 0 88 118 196 208 124 210 248 659 591 421 417 358 1153 1724 1652 2119 2213 1982 2051 2181 1835 1881 1684 1492 1508 1405 1291 1242 1072 1371 1498 1525 1491 1335 1096 831 356 58 198 595 738
0 0 0 0 0 0 0 0 0 72 172 143 229 510 386 516 1124 609 328 326 269 1167 1682 1862 2430 2578 2170 2495 2155 1871 1861 1710 1523 1811 1863 1371 1528 1499 1600 1589 1496 1278 1170 788 335 94 369 663 883
0 0 0 0 0 0 0 0 0 81 167 67 453 766 880 1286 1231 724 450 54 228 373 682 1105 1585 1309 1890 2482 2436 2023 1911 2006 1863 1584 1810 2607 2044 1676 1712 1495 1382 1360 733 392 461 624 870 986 1039
0 0 0 0 0 0 0 0 154 194 92 307 108 244 946 1381 1074 934 710 499 22 161 90 142 286 533 490 2484 2543 2220 1925 2600 2033 1945 1641 2108 2570 2221 1636 1521 1497 1175 451 635 888 967 1084 1247 1195
CIN
-140 -147 -108 -96 -69 -106 -180 -5 -93 -106 -153 -149 -53 -38 -36 -204 -0 -44 -168 -171 -143 -141 -49 -0 -0 -0 -0 -0 -0 -0 -0 -0 -0 -0 -0 -0 -0 -0 -0 -0 -0 -0 -0 -0 -0 -0 -1 -0 -1
-233 -78 -119 -109 -85 -32 -34 -0 -87 -83 -80 -104 -119 -119 -112 -143 -173 -210 -198 -167 -174 -102 -26 -9 -0 -0 -0 -0 -0 -0 -0 -0 -0 -0 -0 -0 -0 -0 -0 -0 -0 -0 -0 -0 -0 -0 -0 -4 -1
-111 -151 -117 -85 -167 -38 -42 -36 -3 -120 -105 -88 -133 -143 -135 -158 -216 -239 -197 -155 -121 -76 -61 -30 -0 -0 -0 -0 -0 -0 -0 -0 -0 -0 -0 -0 -2 -0 -0 -0 -0 -0 -0 -0 -0 -0 -0 -2 -4
-125 -136 -155 -242 -168 -91 -60 -69 -72 -155 -161 -130 -137 -228 -192 -148 -159 -208 -201 -179 -141 -89 -49 -0 -0 -0 -0 -0 -0 -0 -0 -0 -0 -0 -0 -0 -0 -0 -0 -0 -0 -0 -0 -0 -0 -0 -0 -0 -1
-168 -474 -394 -182 -69 -33 -85 -63 -41 -89 -130 -148 -181 -218 -205 -159 -124 -234 -198 -193 -223 -125 -57 -0 -0 -0 -0 -0 -0 -0 -0 -0 -0 -0 -0 -0 -0 -0 -0 -0 -0 -0 -0 -0 -0 -0 -0 -11 -21
-76 -533 -134 -212 -236 -85 -42 -39 -81 -80 -173 -208 -209 -190 -184 -200 -153 -239 -221 -256 -221 -186 -62 -5 -0 -0 -0 -0 -0 -0 -0 -0 -0 -0 -0 -0 -0 -0 -0 -0 -0 -0 -0 -0 -0 -7 -1 -5 -36
-42 -82 -303 -222 -203 -64 -52 -4 -22 -25 -135 -170 -237 -190 -283 -266 -281 -264 -225 -272 -203 -163 -105 -46 -16 -11 -8 -2 -0 -0 -0 -0 -0 -0 -0 -0 -0 -0 -0 -0 -0 -0 -0 -0 -0 -0 -0 -5 -25
-38 -336 -186 -212 -162 -177 -38 -13 -34 -26 -22 -157 -254 -239 -307 -298 -228 -258 -257 -234 -200 -161 -128 -78 -39 -27 -5 -5 -0 -0 -0 -0 -0 -0 -0 -0 -0 -0 -0 -0 -0 -13 -0 -0 -0 -0 -0 -16 -36
-57 -24 -124 -145 -176 -73 -18 -21 -30 -90 -69 -94 -165 -240 -291 -315 -259 -241 -316 -237 -204 -195 -136 -88 -74 -42 -35 -38 -27 -0 -1 -0 -0 -1 -0 -0 -0 -0 -2 -1 -0 -6 -0 -0 -0 -0 -9 -31 -50
-67 -29 -31 -101 -237 -207 -25 -22 -73 -168 -8 -47 -117 -295 -305 -403 -342 -345 -337 -308 -277 -248 -113 -92 -102 -98 -67 -34 -16 -17 -54 -51 -39 -10 -10 -1 -7 -1 -1 -1 -0 -3 -0 -0 -0 -0 -10 -15 -38
-40 -37 -30 -49 -61 -78 -25 -41 -54 -249 -165 -129 -272 -265 -334 -406 -330 -354 -349 -353 -178 -194 -141 -117 -110 -119 -111 -98 -56 -25 -33 -84 -44 -13 -25 -3 -45 -4 -0 -2 -0 -2 -5 -0 -1 -1 -2 -35 -38
-182 -0 -69 -115 -172 -192 -51 -62 -121 -141 -97 -81 -246 -297 -330 -303 -369 -370 -383 -379 -151 -123 -64 -176 -138 -126 -150 -145 -131 -118 -56 -34 -76 -34 -26 -29 -32 -48 -4 -4 -3 -1 -11 -35 -1 -5 -22 -28 -40
-0 -0 -0 -0 -242 -200 -172 -129 -156 -103 -0 -222 -280 -227 -292 -304 -310 -351 -353 -272 -171 -160 -137 -260 -203 -166 -168 -163 -184 -137 -90 -88 -96 -93 -64 -74 -55 -51 -42 -41 -10 -10 -10 -86 -27 -23 -31 -46 -64
-0 -0 -0 -0 -0 -0 -60 -67 -0 -0 -155 -180 -257 -196 -187 -301 -314 -298 -384 -327 -278 -214 -227 -324 -256 -219 -183 -171 -179 -219 -167 -133 -116 -115 -77 -69 -95 -86 -61 -47 -43 -26 -36 -46 -127 -58 -53 -71 -87
-0 -0 -0 -0 -0 -0 -0 -0 -0 -0 -114 -214 -212 -232 -197 -228 -328 -323 -315 -439 -384 -279 -278 -414 -306 -257 -252 -161 -158 -132 -208 -168 -158 -121 -96 -98 -68 -93 -61 -93 -73 -64 -77 -57 -64 -54 -98 -71 -79
-0 -0 -0 -0 -0 -0 -0 -0 -0 -0 -0 -169 -215 -218 -225 -284 -330 -344 -278 -306 -313 -374 -361 -444 -337 -311 -290 -223 -163 -132 -195 -193 -126 -85 -88 -144 -84 -70 -35 -106 -66 -69 -56 -51 -39 -31 -28 -87 -36
-0 -0 -0 -0 -0 -0 -0 -0 -0 -0 -0 -0 -291 -104 -243 -231 -270 -312 -216 -227 -281 -294 -465 -426 -384 -365 -362 -273 -217 -154 -188 -158 -113 -98 -62 -72 -53 -62 -30 -19 -40 -28 -42 -39 -25 -26 -23 -73 -38
-0 -0 -0 -0 -0 -0 -0 -0 -0 -0 -0 -152 -197 -62 -136 -182 -245 -274 -259 -216 -207 -246 -509 -464 -418 -393 -379 -368 -194 -143 -182 -131 -64 -35 -105 -54 -59 -43 -22 -17 -14 -42 -39 -34 -45 -25 -40 -25 -32
-0 -0 -0 -0 -0 -0 -0 -0 -0 -0 -0 -0 -62 -18 -111 -96 -138 -71 -271 -233 -197 -221 -457 -458 -417 -382 -398 -383 -279 -168 -191 -129 -109 -78 -58 -89 -77 -52 -39 -16 -26 -18 -22 -45 -59 -65 -42 -43 -43
-0 -0 -0 -0 -0 -0 -0 -0 -0 -0 -0 -0 -0 -0 -125 -82 -41 -72 -224 -231 -178 -232 -241 -479 -449 -411 -422 -377 -350 -256 -202 -160 -126 -104 -64 -47 -51 -147 -87 -35 -40 -32 -31 -33 -42 -84 -63 -50 -41
-0 -0 -0 -0 -0 -0 -0 -0 -0 -0 -0 -0 -0 -0 -0 -74 -61 -103 -192 -245 -43 -212 -239 -564 -505 -475 -420 -399 -303 -271 -230 -150 -156 -135 -103 -90 -81 -130 -96 -60 -66 -40 -30 -20 -42 -128 -73 -59 -43
-0 -0 -0 -0 -0 -0 -0 -0 -0 -0 -0 -0 -0 -0 -310 -252 -266 -267 -122 -44 -31 -33 -248 -522 -533 -530 -453 -393 -364 -335 -345 -309 -255 -229 -189 -161 -128 -105 -80 -74 -72 -69 -37 -25 -16 -132 -83 -40 -49
-0 -0 -0 -0 -0 -0 -0 -0 -0 -0 -0 -0 -0 -214 -390 -574 -329 -100 -90 -92 -103 -22 -24 -281 -534 -534 -526 -475 -414 -350 -343 -356 -327 -240 -204 -179 -110 -71 -106 -66 -76 -62 -63 -49 -23 -90 -24 -26 -36
-0 -0 -0 -0 -0 -0 -0 -0 -0 -328 -0 -0 -12 -136 -125 -102 -581 -545 -272 -147 -144 -207 -313 -420 -472 -549 -494 -476 -398 -390 -349 -330 -331 -255 -204 -206 -137 -101 -94 -96 -79 -100 -58 -34 -34 -53 -50 -34 -15
-0 -0 -0 -0 -0 -0 -0 -0 -156 -203 -265 -183 -185 -141 -252 -89 -717 -590 -483 -289 -245 -276 -299 -399 -463 -465 -463 -465 -411 -385 -371 -321 -269 -268 -205 -168 -140 -118 -103 -104 -105 -39 -49 -46 -54 -31 -74 -88 -44
-0 -0 -0 -0 -0 -0 -0 -0 -124 -260 -397 -454 -315 -246 -241 -318 -273 -437 -345 -463 -198 -160 -230 -215 -165 -168 -295 -465 -431 -375 -329 -343 -285 -213 -198 -176 -182 -147 -122 -112 -72 -31 -29 -35 -52 -63 -110 -91 -57
-0 -0 -0 -0 -0 -0 -0 -0 -201 -305 -300 -388 -436 -480 -331 -254 -199 -148 -400 -634 -340 -155 -191 -96 -36 -32 -101 -74 -122 -289 -273 -271 -234 -199 -165 -122 -134 -131 -112 -93 -55 -19 -7 -3 -25 -145 -135 -50 -34
-0 -0 -0 -0 -0 -0 -0 -0 -0 -204 -288 -347 -326 -355 -383 -219 -210 -186 -129 -395 -619 -249 -133 -101 -35 -3 -7 -11 -83 -95 -132 -191 -193 -143 -93 -146 -132 -114 -73 -64 -43 -32 -26 -39 -88 -164 -120 -61 -20
-0 -0 -0 -0 -0 -0 -0 -0 -0 -184 -231 -286 -268 -208 -220 -173 -131 -205 -209 -558 -788 -329 -242 -107 -79 -94 -7 -2 -13 -61 -80 -87 -141 -136 -121 -35 -36 -67 -31 -28 -50 -47 -108 -199 -159 -101 -41 -12 -12
-0 -0 -0 -0 -0 -0 -0 -0 -111 -206 -240 -230 -192 -193 -148 -120 -100 -173 -309 -486 -737 -327 -410 -639 -70 -85 -111 -20 -4 -5 -63 -19 -65 -138 -121 -91 -18 -13 -18 -51 -31 -36 -227 -165 -100 -67 -29 -12 -6
Wind_Speed
20 20 18 19 29 35 29 nan nan nan nan nan 32 26 23 nan nan nan 15 17 16 14 10 14 15 16 18 19 13 3 10 18 23 22 19 12 14 12 11 7 5 3 4 5 7 9 7 6 5
7 12 12 15 19 26 nan nan nan nan 29 27 25 23 17 16 11 16 9 19 22 14 9 9 10 12 11 9 11 10 5 9 13 12 13 15 10 12 8 6 4 5 3 3 7 8 6 6 6
7 6 4 12 12 10 nan nan nan nan nan 30 23 25 22 24 24 22 18 20 19 14 10 9 10 8 10 6 5 6 4 6 8 12 9 12 11 11 8 7 6 3 4 5 8 8 5 6 7
9 8 7 1 11 14 nan nan 17 28 33 27 25 20 19 31 37 29 34 24 15 14 12 11 9 7 5 6 4 5 6 1 5 8 9 7 8 7 7 6 5 3 3 5 6 5 5 5 5
6 7 nan 5 nan nan nan nan nan 31 28 32 28 23 23 24 36 46 41 37 21 8 10 13 13 6 3 4 2 2 4 3 1 6 6 5 7 8 8 7 6 4 3 3 4 5 4 6 5
8 nan nan nan nan nan nan nan nan 14 33 35 24 25 24 39 45 42 44 38 34 19 11 8 13 10 5 4 4 2 2 2 8 5 6 6 5 5 5 5 6 6 5 5 5 3 3 4 3
9 nan 9 nan nan nan nan nan nan 8 23 34 34 23 26 40 40 43 40 36 31 32 24 11 8 9 9 5 3 3 1 1 5 8 5 2 1 2 2 3 4 4 5 4 4 3 2 4 3
10 11 11 nan nan nan nan nan nan 18 15 33 39 30 38 43 40 35 33 32 32 32 33 21 7 5 2 4 6 3 2 3 2 5 8 7 2 3 3 2 5 5 3 5 5 4 3 4 5
12 15 nan 18 nan nan nan nan nan 20 25 23 33 33 48 40 40 37 26 24 24 26 32 27 7 2 4 5 3 5 3 2 3 4 5 8 12 10 4 5 3 5 3 3 6 4 5 4 5
18 19 25 25 nan nan nan nan 30 28 nan 19 22 36 43 41 46 39 32 30 28 27 33 32 15 5 3 1 3 6 8 11 10 11 10 13 12 12 10 6 3 4 3 4 6 4 3 5 11
18 17 26 30 35 nan nan 14 4 32 27 23 30 48 48 41 40 40 34 34 33 31 31 37 29 16 9 7 2 1 5 11 14 12 12 13 13 13 15 18 12 11 5 11 9 9 10 9 9
nan nan nan nan 31 16 17 2 5 13 23 29 33 43 47 43 38 39 34 30 32 33 34 34 32 24 18 9 8 6 3 1 7 9 11 14 14 13 14 15 16 13 14 12 11 13 10 9 8
nan nan nan nan nan 25 15 10 7 nan nan 33 31 30 39 44 36 31 29 29 28 32 32 32 29 26 26 21 15 11 9 5 3 6 10 13 14 12 15 14 15 14 14 15 13 11 11 12 10
nan nan nan nan nan nan nan nan nan nan nan 28 33 32 35 34 35 25 22 31 27 28 31 33 32 30 27 22 22 17 15 15 3 7 6 10 12 11 13 13 13 14 14 15 14 13 11 11 12
nan nan nan nan nan nan nan nan nan nan nan nan 30 29 32 27 40 22 26 28 33 25 30 30 30 31 30 27 22 18 16 17 15 4 8 10 11 11 11 12 13 13 15 15 16 16 15 14 11
nan nan nan nan nan nan nan nan nan nan nan nan 27 28 31 38 36 35 22 25 30 27 27 30 28 30 30 30 26 19 16 11 10 15 1 7 10 10 11 12 14 17 19 18 18 17 16 15 14
nan nan nan nan nan nan nan nan nan nan nan nan 16 26 32 37 40 35 18 23 25 25 26 27 28 30 30 26 27 20 17 14 11 7 9 7 2 3 8 8 12 17 16 17 20 21 20 16 16
nan nan nan nan nan nan nan nan nan nan nan 18 18 16 32 39 43 41 32 29 27 21 22 25 25 27 25 23 19 18 15 15 13 12 8 6 4 4 2 3 11 16 17 17 20 22 23 21 18
nan nan nan nan nan nan nan nan nan nan nan nan 22 24 14 19 27 37 34 26 27 16 23 22 24 27 22 19 22 20 16 14 15 14 14 11 8 6 4 2 6 11 13 16 18 22 21 22 24
nan nan nan nan nan nan nan nan nan nan nan nan nan nan 17 17 11 22 26 23 27 32 20 19 23 26 26 21 18 19 19 9 13 16 19 16 14 11 7 7 7 10 13 14 14 16 24 24 25
nan nan nan nan nan nan nan nan nan nan nan nan nan nan nan nan 20 16 23 24 26 31 35 18 21 27 24 20 17 11 14 13 9 13 17 18 17 12 9 7 9 11 13 13 11 16 19 22 23
nan nan nan nan nan nan nan nan nan nan nan nan nan nan nan nan 49 34 28 26 30 30 34 41 16 20 24 20 20 18 18 19 17 14 13 14 19 15 12 11 12 11 12 13 15 15 17 24 22
nan nan nan nan nan nan nan nan nan nan nan nan nan nan nan nan 57 59 53 40 32 31 34 22 12 16 23 23 20 18 16 17 18 13 12 14 17 23 20 17 15 11 13 8 16 19 16 18 22
nan nan nan nan nan nan nan nan nan nan nan nan nan nan nan 31 59 47 43 43 41 34 22 14 9 17 20 24 20 19 20 20 20 18 16 14 15 18 23 19 17 13 9 15 19 17 20 20 19
nan nan nan nan nan nan nan nan nan nan 14 22 21 20 27 27 42 54 50 56 64 41 19 19 15 16 20 24 22 18 18 22 24 22 19 18 16 16 20 20 17 12 11 12 9 14 16 18 13
nan nan nan nan nan nan nan nan nan 23 27 29 26 33 27 nan 21 47 62 71 68 67 45 32 30 28 18 27 22 20 19 18 19 20 20 17 16 17 20 23 17 14 13 9 5 5 9 10 11
nan nan nan nan nan nan nan nan nan 25 27 25 32 36 39 34 18 26 51 61 54 62 52 50 47 35 25 26 25 24 22 21 22 20 18 18 16 12 16 21 19 11 8 9 6 nan 3 4 6
nan nan nan nan nan nan nan nan nan nan 26 32 33 31 32 25 23 18 41 50 50 44 49 51 48 43 28 31 29 25 24 25 25 27 21 21 21 19 17 19 18 16 9 7 7 nan 3 4 7
nan nan nan nan nan nan nan nan nan nan 26 nan 32 25 21 24 21 14 36 nan 46 38 50 47 47 52 49 33 26 27 25 27 32 26 26 26 25 25 24 21 20 18 14 11 9 8 9 9 8
nan nan nan nan nan nan nan nan 41 37 nan 26 20 16 21 22 25 17 21 40 nan 39 nan 59 64 62 51 35 31 32 33 32 29 31 24 29 28 28 27 24 22 21 16 12 10 9 9 8 5
Wind_Direction
55 62 63 64 56 43 47 nan nan nan nan nan 17 26 32 nan nan nan 351 350 358 9 27 48 45 36 33 40 36 22 169 177 189 186 179 202 200 202 208 181 179 184 147 152 188 173 161 152 159
57 53 102 70 60 62 nan nan nan nan 6 5 10 10 30 23 7 338 340 342 345 348 26 57 47 47 36 16 35 40 43 184 171 170 183 204 195 207 201 176 205 167 168 163 179 181 171 146 150
57 319 73 97 59 92 nan nan nan nan nan 6 21 14 15 25 11 3 339 335 328 348 15 31 20 34 33 17 10 39 59 95 159 153 196 194 189 202 202 193 189 196 183 195 198 190 177 148 168
317 319 107 181 97 65 nan nan 31 0 348 356 1 351 0 8 7 10 360 349 329 334 1 17 358 3 14 22 346 314 315 69 152 157 182 194 195 201 212 209 202 178 198 197 207 206 174 156 163
249 292 nan 125 nan nan nan nan nan 9 360 347 4 6 9 19 356 352 356 2 351 347 349 352 344 335 349 343 16 317 311 289 238 200 191 199 203 208 209 202 198 186 198 197 208 206 179 153 177
275 nan nan nan nan nan nan nan nan 16 345 336 349 349 19 358 353 2 357 359 11 3 2 348 339 338 312 298 303 315 340 341 226 221 200 195 213 226 218 208 200 178 203 192 212 211 177 161 199
328 nan 339 nan nan nan nan nan nan 23 347 347 332 351 0 0 2 358 1 359 9 13 5 350 347 341 337 290 283 271 312 74 177 237 210 223 256 295 301 259 227 232 223 196 206 204 197 134 152
304 288 266 nan nan nan nan nan nan 294 45 338 334 357 -0 352 1 359 359 4 360 12 14 8 337 330 314 193 241 217 220 236 247 212 243 251 261 330 339 272 243 249 266 249 229 216 142 122 144
341 292 nan 3 nan nan nan nan nan 267 210 102 16 356 357 342 358 356 353 10 3 12 14 12 3 279 227 190 220 239 232 238 213 233 237 226 204 203 206 234 326 277 246 281 261 218 141 145 158
358 331 0 10 nan nan nan nan 332 310 nan 61 360 338 342 338 343 348 356 1 6 11 23 25 29 21 316 347 140 197 210 198 196 202 195 207 211 216 221 241 293 285 275 297 290 261 176 166 191
1 10 356 21 36 nan nan 106 94 312 358 26 353 336 334 335 352 350 357 360 7 16 28 33 40 44 23 29 54 90 192 209 210 209 200 209 204 206 210 210 214 220 240 204 220 235 212 206 201
nan nan nan nan 22 20 43 199 194 320 14 331 334 331 327 338 344 349 355 359 5 17 27 29 41 43 43 51 47 37 21 255 225 228 226 219 209 209 217 217 223 224 217 227 212 221 220 215 210
nan nan nan nan nan 12 34 81 123 nan nan 306 311 326 324 327 344 347 353 359 5 17 20 30 32 41 46 43 42 38 36 25 335 276 248 236 231 224 220 222 232 232 230 233 224 224 223 224 215
nan nan nan nan nan nan nan nan nan nan nan 293 312 324 325 334 336 351 352 0 3 11 13 19 26 31 35 34 35 34 31 16 341 255 244 266 251 240 216 228 243 241 247 238 240 236 230 229 228
nan nan nan nan nan nan nan nan nan nan nan nan 319 312 319 359 327 357 360 351 358 7 5 9 14 16 24 22 27 31 38 40 36 5 240 248 231 238 250 246 240 242 246 246 242 238 239 231 227
nan nan nan nan nan nan nan nan nan nan nan nan 328 309 315 331 344 343 348 350 344 354 354 357 5 14 22 20 17 26 37 37 31 37 223 269 235 244 233 236 243 240 237 248 243 239 242 245 246
nan nan nan nan nan nan nan nan nan nan nan nan 314 315 325 328 319 339 348 349 339 338 344 344 347 1 5 10 15 22 25 28 33 29 46 55 91 278 264 263 265 261 250 245 243 238 238 232 239
nan nan nan nan nan nan nan nan nan nan nan 247 274 327 327 326 331 329 336 344 353 327 322 338 339 346 358 354 3 19 27 31 42 46 45 47 75 53 281 254 254 250 246 244 243 241 244 240 235
nan nan nan nan nan nan nan nan nan nan nan nan 285 272 302 316 346 315 326 337 324 337 310 329 335 338 341 341 348 0 22 30 31 38 35 32 29 42 351 326 272 261 251 244 241 240 245 244 243
nan nan nan nan nan nan nan nan nan nan nan nan nan nan 305 317 339 315 307 318 322 326 322 312 328 332 334 324 341 338 345 14 27 25 27 25 20 24 7 315 292 286 263 264 247 245 236 237 247
nan nan nan nan nan nan nan nan nan nan nan nan nan nan nan nan 270 302 303 312 310 312 318 323 328 326 326 326 317 298 299 298 349 24 20 25 21 15 7 346 307 298 275 272 269 256 250 246 245
nan nan nan nan nan nan nan nan nan nan nan nan nan nan nan nan 236 245 282 290 297 309 304 311 314 314 313 312 311 328 335 343 352 10 25 5 16 12 355 341 336 318 286 283 285 284 266 258 256
nan nan nan nan nan nan nan nan nan nan nan nan nan nan nan nan 240 240 243 239 266 270 283 305 288 285 295 309 305 309 326 327 330 333 344 9 3 6 360 356 342 324 298 308 284 260 262 253 256
nan nan nan nan nan nan nan nan nan nan nan nan nan nan nan 262 252 248 253 233 255 267 273 243 241 275 282 296 294 314 326 324 319 326 333 345 0 7 4 355 351 338 336 317 295 253 250 256 259
nan nan nan nan nan nan nan nan nan nan 303 314 293 278 250 240 242 235 240 241 241 238 237 252 242 258 273 288 287 303 315 318 322 327 327 332 341 355 358 352 358 349 353 354 332 254 221 245 251
nan nan nan nan nan nan nan nan nan 302 302 312 302 289 285 nan 231 233 224 229 234 231 221 230 213 209 240 279 287 282 293 292 302 314 312 329 340 351 347 348 340 354 6 11 347 175 202 217 228
nan nan nan nan nan nan nan nan nan 280 289 288 280 282 294 292 263 230 216 227 227 239 222 215 210 211 227 236 228 265 273 283 291 284 303 310 318 322 331 336 333 319 342 346 341 nan 359 298 288
nan nan nan nan nan nan nan nan nan nan 278 261 261 284 301 285 289 229 220 221 230 230 233 219 209 200 207 241 228 239 250 271 272 272 283 290 302 308 312 322 326 318 320 309 308 nan 320 316 278
nan nan nan nan nan nan nan nan nan nan 298 nan 276 279 295 288 285 287 222 nan 222 226 245 230 213 206 195 227 225 232 234 254 269 268 270 285 293 300 307 312 317 319 324 318 309 297 290 295 284
nan nan nan nan nan nan nan nan 294 296 nan 295 281 275 294 280 272 273 258 232 nan 238 nan 227 210 207 198 230 224 233 243 238 256 269 271 277 278 283 287 293 303 310 307 309 313 317 303 302 282